[[{"header":{"parameterUnit":"m.s-1","parameterCategory":1,"la1":30.2991,"la2":30.254,"lo1":-89.0895,"lo2":-89.0444,"dy":0.0017,"dx":0.0017,"nx":28,"ny":28,"refTime":"2024-05-04T09:00:00:Z","depth":0,"parameterNumber":2,"parameterNumberName":"U-component_of_WINDS"},"data":[0,0,0,0,0,0,0,0,0,0,0,0,0,0,0,0,0,0,0,0,0,0,0,0,0,0,0,0,0,0,0,0,0,0,0,0,0,0,0,0,0,0,0,0,0,0,0,0,0,0,0,0,0,0,0,0,0,0,-1.9032,-1.9031,0,-1.8983,-1.8983,-1.8982,-1.8886,-1.8884,-1.8882,-1.888,-1.8832,-1.8833,-1.8833,0,0,0,0,0,0,0,0,0,0,0,0,0,-1.9042,-1.9043,-1.9032,-1.9031,-1.9031,-1.8983,-1.8983,-1.8982,-1.8886,-1.8884,-1.8881,-1.8879,-1.8832,-1.8833,-1.8833,0,0,0,0,0,0,0,0,0,0,0,0,0,-1.902,-1.9043,-1.9032,-1.8977,-1.8972,-1.8983,-1.8983,-1.8982,-1.8886,-1.8884,-1.8881,-1.8878,-1.8832,-1.8833,-1.8833,-1.8896,0,0,-1.8836,-1.8836,0,0,0,0,0,0,0,0,-1.9022,-1.902,-1.8986,-1.8981,-1.8975,-1.8937,-1.8969,-1.8953,-1.8887,-1.8919,-1.888,-1.8877,-1.887,-1.8867,-1.8864,-1.8893,-1.8891,-1.8836,-1.8836,-1.8837,-1.8837,0,0,0,0,0,0,0,-1.9023,-1.9022,-1.9013,-1.8985,-1.8979,-1.8955,-1.8949,-1.8965,-1.8911,-1.8916,-1.8909,-1.8904,-1.8866,-1.8864,-1.8863,-1.8891,-1.8836,-1.8836,-1.8837,-1.8837,-1.8966,-1.8969,0,0,0,0,0,0,-1.9033,-1.9023,-1.9014,-1.9011,-1.8992,-1.8957,-1.895,-1.8952,-1.8911,-1.8901,-1.8907,-1.89,-1.8864,-1.8862,-1.8861,-1.8929,-1.8837,-1.8837,-1.8838,-1.8963,-1.8967,-1.897,0,0,0,0,0,0,-1.9033,-1.9033,-1.9016,-1.9015,-1.9011,-1.896,-1.8963,-1.8953,-1.895,-1.8904,-1.8894,-1.8914,-1.8862,-1.886,-1.8887,-1.8926,-1.8838,-1.8838,-1.896,-1.8964,-1.8969,-1.9068,0,0,0,0,0,0,-1.9034,-1.9034,-1.9057,-1.9017,-1.9012,-1.9044,-1.8966,-1.8954,-1.8952,-1.8943,-1.8908,-1.89,-1.8859,-1.8886,-1.8888,-1.8926,-1.8839,-1.8956,-1.8962,-1.8967,-1.9061,-1.9076,-1.9088,0,0,0,0,0,-1.9035,-1.9087,-1.9058,-1.9058,-1.9039,-1.9046,-1.9043,-1.8995,-1.8956,-1.8978,-1.8948,-1.8901,-1.8922,-1.889,-1.8891,-1.893,-1.8953,-1.896,-1.8967,-1.9055,-1.9073,-1.9088,0,0,0,0,0,0,-1.9134,-1.9081,-1.9048,-1.9089,-1.9073,-1.903,-1.9057,-1.9016,-1.901,-1.9002,-1.8943,-1.8936,-1.8971,-1.8953,-1.8919,-1.8987,-1.893,-1.8937,-1.8997,-1.9013,-1.9027,-1.903,-1.884,0,0,0,0,0,-1.9161,-1.917,-1.9123,-1.9164,-1.9158,-1.9109,-1.911,-1.9074,-1.9055,-1.9048,-1.9019,-1.9003,-1.9005,-1.9009,-1.9009,-1.9058,-1.9049,-1.9085,-1.9099,-1.911,-1.9117,-1.914,-1.9155,-1.8992,-1.8992,-1.8992,0,0,-1.9216,-1.9188,-1.9198,-1.9184,-1.9166,-1.9177,-1.9104,-1.9119,-1.9126,-1.905,-1.9074,-1.9053,-1.903,-1.9069,-1.9084,-1.9055,-1.9159,-1.9118,-1.9128,-1.9128,-1.9149,-1.9164,-1.9178,-1.8997,-1.8996,-1.8995,0,0,-1.9322,-1.9303,-1.9334,-1.9318,-1.9292,-1.9259,-1.9267,-1.923,-1.9213,-1.9235,-1.9178,-1.9186,-1.9193,-1.9178,-1.9172,-1.9272,-1.9228,-1.9274,-1.9343,-1.9367,-1.938,-1.9391,-1.9425,-1.9438,-1.9281,-1.9281,-1.9281,0,-1.9395,-1.9408,-1.9355,-1.9373,-1.9368,-1.9299,-1.933,-1.9317,-1.9294,-1.9292,-1.9259,-1.9264,-1.9245,-1.9278,-1.9302,-1.93,-1.9306,-1.9277,-1.9382,-1.9393,-1.9402,-1.9434,-1.9448,-1.9287,-1.9286,-1.9285,-1.9285,0,-1.9498,-1.9508,-1.9536,-1.9514,-1.9512,-1.9537,-1.9488,-1.9493,-1.9457,-1.9428,-1.9451,-1.9425,-1.9417,-1.9423,-1.9389,-1.9452,-1.9434,-1.9393,-1.9334,-1.9424,-1.9453,-1.9465,-1.9295,-1.9293,-1.9291,-1.929,0,0,-1.9665,-1.9612,-1.9624,-1.9612,-1.9579,-1.9586,-1.9607,-1.9599,-1.9604,-1.959,-1.9606,-1.9612,-1.9573,-1.9566,-1.953,-1.9551,-1.963,-1.9506,-1.9505,-1.9529,-1.9696,-1.9727,-1.9742,-1.9601,-1.9603,-1.9605,-1.9698,0,-1.9763,-1.9796,-1.9748,-1.9792,-1.98,-1.9734,-1.9752,-1.9734,-1.9707,-1.971,-1.9681,-1.9686,-1.9634,-1.9629,-1.9647,-1.9617,-1.9663,-1.961,-1.9615,-1.9616,-1.9622,-1.9757,-1.979,-1.9879,-1.9709,-1.9711,-1.9712,0,-1.9882,-1.9872,-1.9916,-1.9879,-1.988,-1.9898,-1.9886,-1.989,-1.9868,-1.9847,-1.9838,-1.9795,-1.9813,-1.9757,-1.9781,-1.9745,-1.9745,-1.973,-1.9732,-1.973,-1.9669,-1.9758,-1.9906,-1.9919,-1.973,-1.9728,-1.9727,0,-1.9998,-1.9997,-2.0022,-2.0015,-1.9972,-1.9985,-1.9968,-1.9943,-1.9941,-1.9931,-1.9928,-1.9921,-1.9917,-1.9913,-1.9868,-1.9832,-1.9897,-1.9837,-1.9879,-1.988,-1.9895,-1.9895,-2.0044,-1.9897,-1.9897,-1.9897,-1.9896,0,-2.0112,-2.0141,-2.0074,-2.009,-2.012,-2.0065,-2.0097,-2.0073,-2.0051,-2.0061,-2.0004,-2.0015,-1.9955,-1.996,-1.9925,-1.9949,-1.9948,-1.9931,-1.9922,-1.9936,-1.9938,-1.9934,-1.9926,-1.99,-1.9899,-1.9899,-1.9898,0,-2.0247,-2.0203,-2.0226,-2.0183,-2.0173,-2.0198,-2.0161,-2.0174,-2.0143,-2.0156,-2.0156,-2.0108,-2.011,-2.0065,-2.0058,-2.0034,-2.0074,-2.0053,-2.0081,-2.0074,-2.0118,-2.0114,-2.0269,-2.0286,-2.013,-2.0131,-2.0133,0,-2.0322,-2.0342,-2.0302,-2.0304,-2.0289,-2.0294,-2.029,-2.0237,-2.0237,-2.0212,-2.0228,-2.0225,-2.0219,-2.0225,-2.019,-2.0184,-2.0162,-2.0217,-2.0161,-2.0174,-2.0162,-2.0161,-2.0162,-2.0229,-2.0231,-2.0233,-2.0234,0,-2.0459,-2.0436,-2.0434,-2.0424,-2.0421,-2.0411,-2.0397,-2.0403,-2.0344,-2.0347,-2.0347,-2.0343,-2.0335,-2.0333,-2.032,-2.0302,-2.0259,-2.0252,-2.0261,-2.0275,-2.029,-2.0281,-2.0112,-2.0248,-2.0247,-2.0246,-2.0245,-2.0244,-2.0565,-2.058,-2.0553,-2.0552,-2.0536,-2.0524,-2.0533,-2.0503,-2.0502,-2.0491,-2.046,-2.0466,-2.0442,-2.042,-2.0406,-2.041,-2.0383,-2.0396,-2.0399,-2.0403,-2.0411,-2.029,-2.0408,-2.0407,-2.0407,-2.0406,-2.0406,0,-2.0698,-2.0678,-2.0677,-2.0659,-2.0658,-2.0616,-2.0598,-2.0601,-2.0606,-2.0587,-2.0582,-2.0583,-2.058,-2.0544,-2.0536,-2.0546,-2.0526,-2.0546,-2.0544,-2.054,-2.0436,-2.0429,-2.0562,-2.0562,-2.0562,-2.0562,-2.0562,-2.0562,-2.0768,-2.079,-2.0764,-2.0777,-2.0756,-2.076,-2.0753,-2.0742,-2.0726,-2.0729,-2.0726,-2.0702,-2.0676,-2.0666,-2.0661,-2.065,-2.065,-2.0677,-2.0659,-2.0563,-2.0548,-2.0533,-2.0526,-2.0677,-2.0678,-2.0762,-2.0763,-2.0764]},{"header":{"parameterUnit":"m.s-1","parameterCategory":1,"la1":30.2991,"la2":30.254,"lo1":-89.0895,"lo2":-89.0444,"dy":0.0017,"dx":0.0017,"nx":28,"ny":28,"refTime":"2024-05-04T09:00:00:Z","depth":0,"parameterNumber":3,"parameterNumberName":"V-component_of_WINDS"},"data":[0,0,0,0,0,0,0,0,0,0,0,0,0,0,0,0,0,0,0,0,0,0,0,0,0,0,0,0,0,0,0,0,0,0,0,0,0,0,0,0,0,0,0,0,0,0,0,0,0,0,0,0,0,0,0,0,0,0,-1.7153,-1.7153,0,-1.7182,-1.7183,-1.7183,-1.7214,-1.7214,-1.7215,-1.7215,-1.7243,-1.7243,-1.7243,0,0,0,0,0,0,0,0,0,0,0,0,0,-1.7119,-1.712,-1.7153,-1.7153,-1.7153,-1.7182,-1.7183,-1.7183,-1.7214,-1.7214,-1.7215,-1.7215,-1.7242,-1.7243,-1.7243,0,0,0,0,0,0,0,0,0,0,0,0,0,-1.714,-1.712,-1.7152,-1.7172,-1.7174,-1.7182,-1.7183,-1.7183,-1.7214,-1.7214,-1.7215,-1.7216,-1.7242,-1.7243,-1.7243,-1.7233,0,0,-1.7245,-1.7245,0,0,0,0,0,0,0,0,-1.7138,-1.7141,-1.7169,-1.7171,-1.7173,-1.7195,-1.7181,-1.72,-1.7213,-1.7199,-1.7215,-1.7216,-1.7226,-1.7228,-1.7232,-1.7235,-1.7236,-1.7245,-1.7245,-1.7245,-1.7245,0,0,0,0,0,0,0,-1.7137,-1.714,-1.7164,-1.7169,-1.7172,-1.7178,-1.7182,-1.7185,-1.7208,-1.72,-1.7202,-1.7205,-1.7227,-1.7231,-1.7233,-1.7236,-1.7245,-1.7245,-1.7246,-1.7246,-1.7231,-1.723,0,0,0,0,0,0,-1.7133,-1.7138,-1.7163,-1.7165,-1.7157,-1.7179,-1.7183,-1.7187,-1.7208,-1.7212,-1.7205,-1.7207,-1.723,-1.7232,-1.7234,-1.7222,-1.7245,-1.7246,-1.7246,-1.7232,-1.7231,-1.723,0,0,0,0,0,0,-1.7132,-1.7135,-1.7162,-1.7152,-1.7156,-1.7178,-1.7183,-1.7188,-1.7192,-1.7212,-1.7216,-1.7205,-1.7231,-1.7233,-1.7233,-1.7224,-1.7246,-1.7246,-1.7232,-1.7231,-1.723,-1.72,0,0,0,0,0,0,-1.7131,-1.7134,-1.7132,-1.7152,-1.7157,-1.7162,-1.7183,-1.7188,-1.7193,-1.7196,-1.7213,-1.7217,-1.7232,-1.7232,-1.7234,-1.7225,-1.7247,-1.7233,-1.7232,-1.7231,-1.7202,-1.7198,-1.7195,0,0,0,0,0,-1.713,-1.7121,-1.7131,-1.7134,-1.7154,-1.7161,-1.7164,-1.7182,-1.7192,-1.7189,-1.7202,-1.7216,-1.7225,-1.7232,-1.7234,-1.7225,-1.7234,-1.7232,-1.7231,-1.7204,-1.7199,-1.7195,0,0,0,0,0,0,-1.7098,-1.7124,-1.7136,-1.7134,-1.7145,-1.7166,-1.7163,-1.7176,-1.7184,-1.7186,-1.7207,-1.7211,-1.7208,-1.7217,-1.7224,-1.7216,-1.7232,-1.723,-1.721,-1.7206,-1.7202,-1.7199,-1.7247,0,0,0,0,0,-1.7091,-1.7096,-1.7118,-1.7114,-1.712,-1.714,-1.7144,-1.7157,-1.7169,-1.7174,-1.7187,-1.7197,-1.7202,-1.7205,-1.7211,-1.7204,-1.7207,-1.7199,-1.7195,-1.7193,-1.719,-1.7186,-1.7182,-1.7225,-1.7225,-1.7225,0,0,-1.7076,-1.7091,-1.7093,-1.7108,-1.7119,-1.7122,-1.7144,-1.7146,-1.7149,-1.7174,-1.7174,-1.7184,-1.7197,-1.7193,-1.7193,-1.7201,-1.718,-1.7191,-1.7188,-1.7188,-1.7184,-1.718,-1.7176,-1.7224,-1.7224,-1.7224,0,0,-1.705,-1.7063,-1.706,-1.7071,-1.7086,-1.71,-1.7099,-1.7119,-1.7126,-1.7128,-1.7146,-1.7149,-1.7158,-1.7166,-1.7171,-1.7148,-1.7161,-1.715,-1.713,-1.7126,-1.7122,-1.712,-1.711,-1.7106,-1.7148,-1.7148,-1.7148,0,-1.7029,-1.7036,-1.7057,-1.7059,-1.7064,-1.7089,-1.7086,-1.7094,-1.711,-1.7113,-1.7123,-1.7134,-1.7144,-1.7142,-1.7137,-1.7141,-1.7139,-1.7147,-1.7122,-1.7119,-1.7116,-1.7107,-1.7103,-1.7146,-1.7147,-1.7147,-1.7147,0,-1.7008,-1.7012,-1.7009,-1.7024,-1.703,-1.7029,-1.705,-1.7053,-1.7066,-1.7078,-1.7078,-1.7092,-1.71,-1.7101,-1.7114,-1.7101,-1.7105,-1.7118,-1.7133,-1.711,-1.7102,-1.7099,-1.7144,-1.7145,-1.7145,-1.7146,0,0,-1.6961,-1.699,-1.6988,-1.6995,-1.7014,-1.7017,-1.7017,-1.7027,-1.7028,-1.7039,-1.7038,-1.7045,-1.7057,-1.7063,-1.7077,-1.7073,-1.7052,-1.7086,-1.7087,-1.7077,-1.7036,-1.7025,-1.7021,-1.7062,-1.7061,-1.7061,-1.7035,0,-1.6937,-1.6939,-1.6959,-1.6955,-1.6958,-1.6982,-1.6981,-1.6993,-1.7004,-1.7008,-1.7021,-1.7025,-1.7041,-1.7045,-1.7043,-1.7055,-1.7044,-1.7058,-1.7059,-1.7059,-1.7053,-1.7017,-1.7005,-1.6979,-1.7032,-1.7031,-1.7031,0,-1.6909,-1.6918,-1.6915,-1.6934,-1.6936,-1.6935,-1.6945,-1.6949,-1.6962,-1.6971,-1.6977,-1.6993,-1.6993,-1.701,-1.7009,-1.7018,-1.702,-1.7026,-1.7026,-1.7025,-1.7042,-1.7012,-1.6972,-1.6967,-1.7026,-1.7027,-1.7027,0,-1.6872,-1.6884,-1.6884,-1.6889,-1.6912,-1.6911,-1.692,-1.6934,-1.6938,-1.6946,-1.6949,-1.6957,-1.6961,-1.6967,-1.6983,-1.6994,-1.698,-1.6998,-1.6986,-1.6985,-1.698,-1.6979,-1.6936,-1.6985,-1.6985,-1.6985,-1.6985,0,-1.6841,-1.6838,-1.6867,-1.6867,-1.6863,-1.6886,-1.6881,-1.6892,-1.6904,-1.6905,-1.6927,-1.6927,-1.6951,-1.6953,-1.6966,-1.6963,-1.6965,-1.6971,-1.6974,-1.6967,-1.6966,-1.6967,-1.6968,-1.6984,-1.6984,-1.6985,-1.6985,0,-1.6799,-1.6819,-1.6819,-1.6841,-1.6847,-1.6843,-1.6861,-1.686,-1.6874,-1.6875,-1.6876,-1.6897,-1.6901,-1.692,-1.6928,-1.6937,-1.6928,-1.6936,-1.6923,-1.6925,-1.6911,-1.6911,-1.6865,-1.6859,-1.6913,-1.6913,-1.6912,0,-1.6777,-1.6775,-1.6797,-1.6799,-1.6808,-1.6812,-1.6817,-1.6839,-1.6843,-1.6857,-1.6854,-1.6861,-1.6866,-1.6872,-1.6887,-1.6893,-1.69,-1.6883,-1.69,-1.6894,-1.6897,-1.6895,-1.6894,-1.6879,-1.6878,-1.6877,-1.6877,0,-1.6735,-1.6745,-1.6751,-1.6761,-1.6766,-1.6775,-1.6784,-1.6785,-1.681,-1.6813,-1.6818,-1.6822,-1.6831,-1.6836,-1.6845,-1.6853,-1.6868,-1.6872,-1.6869,-1.6861,-1.6853,-1.6855,-1.6911,-1.6872,-1.6873,-1.6873,-1.6873,-1.6873,-1.67,-1.6699,-1.6714,-1.672,-1.673,-1.6739,-1.6739,-1.6754,-1.6758,-1.6768,-1.6781,-1.6783,-1.6796,-1.681,-1.6817,-1.6818,-1.6827,-1.6823,-1.6822,-1.682,-1.6816,-1.6855,-1.682,-1.6821,-1.6821,-1.6821,-1.6821,0,-1.6657,-1.6669,-1.6674,-1.6687,-1.6692,-1.6708,-1.672,-1.6722,-1.6724,-1.6736,-1.6741,-1.6746,-1.6751,-1.6767,-1.6774,-1.6772,-1.6779,-1.6772,-1.6771,-1.6773,-1.6809,-1.681,-1.6767,-1.6767,-1.6767,-1.6767,-1.6767,-1.6767,-1.6635,-1.6633,-1.6645,-1.6648,-1.666,-1.6663,-1.6668,-1.6676,-1.6684,-1.6689,-1.6694,-1.6705,-1.6718,-1.6726,-1.673,-1.6735,-1.6735,-1.6726,-1.6732,-1.6765,-1.677,-1.6775,-1.6776,-1.6727,-1.6727,-1.6696,-1.6696,-1.6695]}]]